Regional Weather Roundup
Issued by NWS

Home | Current Version | Previous Version | Text Only | Print | Product List | Glossary On
Versions: 1 2 3 4 5 6 7 8 9 10 11 12 13 14 15 16 17 18 19 20 21 22 23 24 25 26 27
000
ASPQ40 PGUM 110812
RWRPQ
WEATHER ROUNDUP FOR THE MARIANAS AND MICRONESIA
NATIONAL WEATHER SERVICE TIYAN GU
600 PM CHST SUN DEC 11 2016

GUZ001>004-110900-
MARIANA ISLANDS-

CITY           SKY/WX    TMP DP  RH WIND       PRES   REMARKS
GUAM AIRPORT   PTCLDY    82  75  78 E10       29.80R
ANDERSEN AFB   MOCLDY    79  73  83 E13       29.82R
ROTA AIRPORT   PTCLDY    79  73  83 S10       29.81R
TINIAN AP      PTCLDY    84  81  89 E9        29.79  HX  98
SAIPAN AP      CLOUDY    81  73  78 E10       29.81R

$$

PMZ161-110900-
REPUBLIC OF PALAU-

CITY           SKY/WX    TMP DP  RH WIND       PRES   REMARKS
KOROR AP       LGT RAIN  86  79  79 NE6       29.74R HX  99
KOROR WSO      MOCLDY    88  77  70 N5        29.75R HX 100

$$

PMZ171>174-110900-
FEDERATED STATES OF MICRONESIA-

CITY           SKY/WX    TMP DP  RH WIND       PRES   REMARKS
YAP AIRPORT    MOCLDY    82  77  83 VRB2      29.75R HX  91
CHUUK AP       MOCLDY    84  77  79 VRB3      29.76R HX  94
POHNPEI AP     NOT AVBL
POHNPEI WSO    CLOUDY    82  75  78 NE12      29.79R
KOSRAE AP      NOT AVBL

$$

PMZ181-110900-
REPUBLIC OF THE MARSHALL ISLANDS-

CITY           SKY/WX    TMP DP  RH WIND       PRES   REMARKS
KWAJALEIN AP   PTCLDY    82  75  78 E15       29.81R
MAJURO AP      NOT AVBL
MAJURO WSO     CLOUDY    82  77  83 NE12      29.78R HX  91

$$





USA.gov is the U.S. government's official web portal to all federal, state and local government web resources and services.